Hagerstown Regional Richard A Henson Field
KHGR : now visible

Airfield :











YOU CAN JOIN US ON...

 
LOGIN :

Register | Disclaimer

   EN    FR    IT 

 









Legend :    VFR   Marginal VFR   IFR   Intensive IFR   Very Intensive IFR
Visi :
Ceiling :
>= 8 km
>= 3000ft
5 to 8 km
1000 to 3000 ft
1500m to 5 km
500 to 1000 ft
800 to 1500m
200 to 500 ft
< 800m
< 200 ft
Symbols :   Thunderstorms  Fog  Heavy snow  Heavy precipitations  Wind > 20 kt






- Airport Elevation : 703 ft
- IATA code : HGR


KHGR - Hagerstown Regional Richard A Henson Field

CURRENT METAR :
  • 041153Z 33007KT 10SM OVC055 08/07 A3009 RMK AO2 SLP203 60010 70010 T00830067 10094 20083 58011

EXPIRED METARs :
  • 041053Z AUTO 33006KT 10SM OVC060 08/07 A3011 RMK AO2 SLP208 T00830067 $
  • 040953Z AUTO 33009KT 10SM OVC065 08/07 A3011 RMK AO2 RAE48 SLP208 P0001 T00830067 $

TAF N/A
KZDC FIR / North America



MET'MAP, your aeronautical weather chart ! - Copyright ORBIFLY December 2007 - Disclaimer

ORBIFLY MET'MAP TEAM :

Programming & Development : Alexandra Zaïnal
Original concept : Baudouin d'Aumeries
Technical & hardware support : Manuel Goepfert
Assistance : Marc-Olivier Méhu




SOURCES & CREDITS :

   NOAA       Earth
Advisory